DUMMY CUBESAT (52983 NORAD) Tracking and Keplerian Element Data

This shows tracking and keplerian element data for the satellite.

Feedback or suggestion? Click here.




ElementValue
Catalog52983
NameDUMMY CUBESAT
Epoch Orbit68
Epoch Day192.9303897
Epoch Year2022
RAAN343.4924
Inclination98.021
Eccentricity0.0007918
Argument of Perigee175.9146
Mean Anonmoly184.2117
Mean Motion14.5798584
Decay Rate1.68E-06
L11 52983U 22065H 22192.93038970 .00000168 00000+0 46274-4 0 9998
L22 52983 98.0210 343.4924 0007918 175.9146 184.2117 14.57985840 685

Live tracking and technical data element details for DUMMY CUBESAT (NORAD 52983). DUMMY CUBESAT can be tracked NOW for your location showing map with azimuth and elevation plus other details from your city location.

Track the satellite on the map from your city or location and see movement details for azimuth, elevation, latitude, longitude, range, height, and movement on the map or in text.







IsCatalogInMostPopularTable: catalog: 52983, numindb: 8
Update: records affected: 1



GetName: 52983 DUMMY CUBESAT

Hit Count: updated at: Thu, 06 Oct 2022 05:02:55 GMT